Time,TemperatureF,DewpointF,PressureIn,WindDirection,WindDirectionDegrees,WindSpeedMPH,WindSpeedGustMPH,Humidity,HourlyPrecipIn,Conditions,Clouds,dailyrainin,SoftwareType,DateUTC
2013-07-15 00:01:00,70.5,62.2,30.06,East,94,0.0,0.0,75,0.00,CLR,SKC,0.00,WeatherDisplay:10.37,2013-07-15 05:01:00,
2013-07-15 00:07:00,70.5,62.2,30.06,ESE,106,0.0,0.0,75,0.00,CLR,SKC,0.00,WeatherDisplay:10.37,2013-07-15 05:07:00,
2013-07-15 00:12:00,70.4,62.1,30.06,ESE,106,0.0,0.0,75,0.00,CLR,SKC,0.00,WeatherDisplay:10.37,2013-07-15 05:12:00,
2013-07-15 00:17:00,70.3,62.0,30.06,ESE,106,0.0,0.0,75,0.00,CLR,SKC,0.00,WeatherDisplay:10.37,2013-07-15 05:17:00,
2013-07-15 00:22:00,70.4,62.1,30.06,ESE,103,0.0,0.0,75,0.00,CLR,SKC,0.00,WeatherDisplay:10.37,2013-07-15 05:22:00,
2013-07-15 00:27:00,70.5,61.8,30.06,ESE,108,0.0,0.0,74,0.00,CLR,SKC,0.00,WeatherDisplay:10.37,2013-07-15 05:27:00,
2013-07-15 00:32:00,70.4,61.7,30.06,ESE,110,0.0,0.0,74,0.00,CLR,SKC,0.00,WeatherDisplay:10.37,2013-07-15 05:32:00,
2013-07-15 00:37:00,70.3,62.0,30.06,ESE,110,0.0,0.0,75,0.00,CLR,SKC,0.00,WeatherDisplay:10.37,2013-07-15 05:37:00,
2013-07-15 00:42:00,69.9,61.6,30.06,ESE,110,0.0,0.0,75,0.00,CLR,SKC,0.00,WeatherDisplay:10.37,2013-07-15 05:42:00,
2013-07-15 00:47:00,69.6,61.7,30.06,ESE,110,0.0,0.0,76,0.00,CLR,SKC,0.00,WeatherDisplay:10.37,2013-07-15 05:47:00,
2013-07-15 00:52:00,69.4,61.5,30.06,ESE,110,0.0,0.0,76,0.00,CLR,SKC,0.00,WeatherDisplay:10.37,2013-07-15 05:52:00,
2013-07-15 00:57:00,69.1,61.6,30.06,ESE,110,0.0,0.0,77,0.00,CLR,SKC,0.00,WeatherDisplay:10.37,2013-07-15 05:57:00,
2013-07-15 01:02:00,68.5,61.4,30.06,ESE,110,0.0,0.0,78,0.00,CLR,SKC,0.00,WeatherDisplay:10.37,2013-07-15 06:02:00,
2013-07-15 01:07:00,68.4,61.6,30.06,ESE,110,0.0,0.0,79,0.00,CLR,SKC,0.00,WeatherDisplay:10.37,2013-07-15 06:07:00,
2013-07-15 01:12:00,68.8,61.7,30.06,ESE,110,0.0,0.0,78,0.00,CLR,SKC,0.00,WeatherDisplay:10.37,2013-07-15 06:12:00,
2013-07-15 01:17:00,69.0,61.5,30.07,ESE,110,0.0,0.0,77,0.00,CLR,SKC,0.00,WeatherDisplay:10.37,2013-07-15 06:17:00,
2013-07-15 01:22:00,69.2,61.7,30.07,East,96,0.0,0.0,77,0.00,CLR,SKC,0.00,WeatherDisplay:10.37,2013-07-15 06:22:00,
2013-07-15 01:27:00,69.5,61.6,30.07,ESE,108,0.0,0.0,76,0.00,CLR,SKC,0.00,WeatherDisplay:10.37,2013-07-15 06:27:00,
2013-07-15 01:32:00,69.6,61.7,30.07,East,96,0.0,0.0,76,0.00,CLR,SKC,0.00,WeatherDisplay:10.37,2013-07-15 06:32:00,
2013-07-15 01:37:00,69.4,61.5,30.07,East,98,0.0,0.0,76,0.00,CLR,SKC,0.00,WeatherDisplay:10.37,2013-07-15 06:37:00,
2013-07-15 01:42:00,69.3,61.4,30.07,ESE,103,0.0,0.0,76,0.00,CLR,SKC,0.00,WeatherDisplay:10.37,2013-07-15 06:42:00,
2013-07-15 01:47:00,69.1,61.2,30.07,ESE,103,0.0,0.0,76,0.00,CLR,SKC,0.00,WeatherDisplay:10.37,2013-07-15 06:47:00,
2013-07-15 01:52:00,68.9,61.4,30.07,ESE,103,0.0,0.0,77,0.00,CLR,SKC,0.00,WeatherDisplay:10.37,2013-07-15 06:52:00,
2013-07-15 01:57:00,68.6,61.1,30.07,ESE,103,0.0,0.0,77,0.00,CLR,SKC,0.00,WeatherDisplay:10.37,2013-07-15 06:57:00,
2013-07-15 02:02:00,68.1,61.0,30.07,ESE,103,0.0,0.0,78,0.00,CLR,SKC,0.00,WeatherDisplay:10.37,2013-07-15 07:02:00,
2013-07-15 02:07:00,67.4,60.7,30.07,ESE,103,0.0,0.0,79,0.00,CLR,SKC,0.00,WeatherDisplay:10.37,2013-07-15 07:07:00,
2013-07-15 02:12:00,66.8,60.4,30.07,ESE,103,0.0,0.0,80,0.00,CLR,SKC,0.00,WeatherDisplay:10.37,2013-07-15 07:12:00,
2013-07-15 02:17:00,66.1,60.4,30.07,ESE,103,0.0,0.0,82,0.00,CLR,SKC,0.00,WeatherDisplay:10.37,2013-07-15 07:17:00,
2013-07-15 02:22:00,65.9,60.6,30.07,ESE,103,0.0,0.0,83,0.00,CLR,SKC,0.00,WeatherDisplay:10.37,2013-07-15 07:22:00,
2013-07-15 02:27:00,65.7,60.4,30.07,East,90,0.0,0.0,83,0.00,CLR,SKC,0.00,WeatherDisplay:10.37,2013-07-15 07:27:00,
2013-07-15 02:32:00,65.4,60.4,30.07,East,83,0.0,0.0,84,0.00,CLR,SKC,0.00,WeatherDisplay:10.37,2013-07-15 07:32:00,
2013-07-15 02:37:00,65.3,60.3,30.07,NE,53,0.0,0.0,84,0.00,CLR,SKC,0.00,WeatherDisplay:10.37,2013-07-15 07:37:00,
2013-07-15 02:42:00,65.2,60.2,30.07,NE,52,0.0,0.0,84,0.00,CLR,SKC,0.00,WeatherDisplay:10.37,2013-07-15 07:42:00,
2013-07-15 02:47:00,65.0,60.4,30.07,NE,52,0.0,0.0,85,0.00,CLR,SKC,0.00,WeatherDisplay:10.37,2013-07-15 07:47:00,
2013-07-15 02:52:00,64.7,60.1,30.07,NE,52,0.0,0.0,85,0.03,RA,SKC,0.03,WeatherDisplay:10.37,2013-07-15 07:52:00,
2013-07-15 02:57:00,64.4,60.1,30.07,NE,52,0.0,0.0,86,0.04,RA,SKC,0.04,WeatherDisplay:10.37,2013-07-15 07:57:00,
2013-07-15 03:02:00,64.5,60.2,30.07,NE,52,0.0,0.0,86,0.09,RA,SKC,0.09,WeatherDisplay:10.37,2013-07-15 08:02:00,
2013-07-15 03:07:00,64.8,60.5,30.07,NE,52,0.0,0.0,86,0.09,RA,SKC,0.09,WeatherDisplay:10.37,2013-07-15 08:07:00,
2013-07-15 03:12:00,65.3,60.7,30.07,ENE,69,0.0,0.0,85,0.09,,SKC,0.09,WeatherDisplay:10.37,2013-07-15 08:12:00,
2013-07-15 03:17:00,65.8,60.5,30.07,East,79,0.0,0.0,83,0.10,RA,SKC,0.10,WeatherDisplay:10.37,2013-07-15 08:17:00,
2013-07-15 03:22:00,65.9,60.6,30.07,ENE,72,4.6,4.6,83,0.15,RA,SKC,0.15,WeatherDisplay:10.37,2013-07-15 08:22:00,
2013-07-15 03:27:00,66.4,60.7,30.07,East,82,3.5,3.5,82,0.15,RA,SKC,0.15,WeatherDisplay:10.37,2013-07-15 08:27:00,
2013-07-15 03:32:00,66.6,60.9,30.07,East,86,4.6,4.6,82,0.16,RA,SKC,0.16,WeatherDisplay:10.37,2013-07-15 08:32:00,
2013-07-15 03:37:00,66.2,60.5,30.07,ENE,71,0.0,0.0,82,0.16,RA,SKC,0.16,WeatherDisplay:10.37,2013-07-15 08:37:00,
2013-07-15 03:42:00,65.8,60.5,30.07,ENE,71,0.0,0.0,83,0.16,,SKC,0.16,WeatherDisplay:10.37,2013-07-15 08:42:00,
2013-07-15 03:47:00,65.7,60.4,30.07,East,79,0.0,0.0,83,0.16,CLR,SKC,0.16,WeatherDisplay:10.37,2013-07-15 08:47:00,
2013-07-15 03:52:00,65.6,60.6,30.07,ENE,62,0.0,0.0,84,0.13,CLR,SKC,0.16,WeatherDisplay:10.37,2013-07-15 08:52:00,
2013-07-15 03:57:00,65.4,60.4,30.07,WNW,299,0.0,0.0,84,0.12,CLR,SKC,0.16,WeatherDisplay:10.37,2013-07-15 08:57:00,
2013-07-15 04:02:00,65.2,60.2,30.07,WNW,291,0.0,0.0,84,0.08,CLR,SKC,0.16,WeatherDisplay:10.37,2013-07-15 09:02:00,
2013-07-15 04:07:00,65.0,60.0,30.07,WNW,291,0.0,0.0,84,0.08,CLR,SKC,0.16,WeatherDisplay:10.37,2013-07-15 09:07:00,
2013-07-15 04:12:00,64.5,59.9,30.07,WNW,291,0.0,0.0,85,0.09,RA,SKC,0.18,WeatherDisplay:10.37,2013-07-15 09:12:00,
2013-07-15 04:17:00,63.7,59.4,30.07,WNW,291,0.0,0.0,86,0.12,RA,SKC,0.22,WeatherDisplay:10.37,2013-07-15 09:17:00,
2013-07-15 04:22:00,63.3,59.4,30.07,WNW,291,0.0,0.0,87,0.08,RA,SKC,0.22,WeatherDisplay:10.37,2013-07-15 09:22:00,
2013-07-15 04:27:00,63.4,60.1,30.07,WNW,290,0.0,0.0,89,0.07,,SKC,0.22,WeatherDisplay:10.37,2013-07-15 09:27:00,
2013-07-15 04:32:00,64.1,60.2,30.07,WNW,291,0.0,0.0,87,0.05,CLR,SKC,0.00,WeatherDisplay:10.37,2013-07-15 09:32:00,
2013-07-15 04:37:00,64.3,60.0,30.07,WNW,291,0.0,0.0,86,0.05,RA,SKC,0.00,WeatherDisplay:10.37,2013-07-15 09:37:00,
2013-07-15 04:42:00,64.0,59.7,30.07,WNW,291,0.0,0.0,86,0.05,RA,SKC,0.00,WeatherDisplay:10.37,2013-07-15 09:42:00,
2013-07-15 04:47:00,63.6,59.3,30.07,WNW,291,0.0,0.0,86,0.05,CLR,SKC,0.00,WeatherDisplay:10.37,2013-07-15 09:47:00,
2013-07-15 04:52:00,63.2,59.3,30.07,WNW,291,0.0,0.0,87,0.05,CLR,SKC,0.00,WeatherDisplay:10.37,2013-07-15 09:52:00,
2013-07-15 04:57:00,62.9,59.3,30.07,WNW,291,0.0,0.0,88,0.05,CLR,SKC,0.00,WeatherDisplay:10.37,2013-07-15 09:57:00,
2013-07-15 05:02:00,62.6,59.0,30.07,WNW,291,0.0,0.0,88,0.05,CLR,SKC,0.00,WeatherDisplay:10.37,2013-07-15 10:02:00,
2013-07-15 05:07:00,62.3,58.7,30.07,WNW,290,0.0,0.0,88,0.05,CLR,SKC,0.00,WeatherDisplay:10.37,2013-07-15 10:07:00,
2013-07-15 05:12:00,62.0,58.7,30.08,WNW,291,0.0,0.0,89,0.04,CLR,SKC,0.00,WeatherDisplay:10.37,2013-07-15 10:12:00,
2013-07-15 05:17:00,62.0,59.0,30.08,WNW,291,0.0,0.0,90,0.02,CLR,SKC,0.00,WeatherDisplay:10.37,2013-07-15 10:17:00,
2013-07-15 05:22:00,61.8,58.8,30.08,WNW,291,0.0,0.0,90,0.00,CLR,SKC,0.00,WeatherDisplay:10.37,2013-07-15 10:22:00,
2013-07-15 05:27:00,61.6,58.6,30.07,WNW,291,0.0,0.0,90,0.00,CLR,SKC,0.00,WeatherDisplay:10.37,2013-07-15 10:27:00,
2013-07-15 05:32:00,61.6,58.9,30.08,WNW,291,0.0,0.0,91,0.00,CLR,SKC,0.00,WeatherDisplay:10.37,2013-07-15 10:32:00,
2013-07-15 05:37:00,61.8,59.1,30.08,WNW,292,0.0,0.0,91,0.00,CLR,SKC,0.00,WeatherDisplay:10.37,2013-07-15 10:37:00,
2013-07-15 05:43:00,62.1,59.1,30.08,North,8,0.0,0.0,90,0.00,CLR,SKC,0.00,WeatherDisplay:10.37,2013-07-15 10:43:00,
2013-07-15 05:48:00,62.0,59.0,30.08,North,8,0.0,0.0,90,0.00,CLR,SKC,0.00,WeatherDisplay:10.37,2013-07-15 10:48:00,
2013-07-15 05:53:00,61.8,58.8,30.08,North,8,0.0,0.0,90,0.00,CLR,SKC,0.00,WeatherDisplay:10.37,2013-07-15 10:53:00,
2013-07-15 05:58:00,61.7,58.7,30.08,North,8,0.0,0.0,90,0.00,CLR,SKC,0.00,WeatherDisplay:10.37,2013-07-15 10:58:00,
2013-07-15 06:03:00,61.5,58.8,30.08,North,8,0.0,0.0,91,0.00,CLR,SKC,0.00,WeatherDisplay:10.37,2013-07-15 11:03:00,
2013-07-15 06:08:00,61.5,58.8,30.08,North,8,0.0,0.0,91,0.00,CLR,SKC,0.00,WeatherDisplay:10.37,2013-07-15 11:08:00,
2013-07-15 06:13:00,61.8,59.1,30.08,North,8,0.0,0.0,91,0.00,CLR,SKC,0.00,WeatherDisplay:10.37,2013-07-15 11:13:00,
2013-07-15 06:18:00,61.8,59.1,30.08,North,8,0.0,0.0,91,0.00,CLR,SKC,0.00,WeatherDisplay:10.37,2013-07-15 11:18:00,
2013-07-15 06:23:00,61.9,59.2,30.08,North,8,0.0,0.0,91,0.00,CLR,SKC,0.00,WeatherDisplay:10.37,2013-07-15 11:23:00,
2013-07-15 06:28:00,62.0,59.3,30.08,North,8,0.0,0.0,91,0.00,CLR,SKC,0.00,WeatherDisplay:10.37,2013-07-15 11:28:00,
2013-07-15 06:33:00,62.4,59.7,30.08,North,8,0.0,0.0,91,0.00,CLR,SKC,0.00,WeatherDisplay:10.37,2013-07-15 11:33:00,
2013-07-15 06:38:00,63.2,60.2,30.08,North,10,0.0,0.0,90,0.00,CLR,SKC,0.00,WeatherDisplay:10.37,2013-07-15 11:38:00,
2013-07-15 06:43:00,63.7,60.4,30.09,North,10,0.0,0.0,89,0.00,CLR,SKC,0.00,WeatherDisplay:10.37,2013-07-15 11:43:00,
2013-07-15 06:48:00,64.6,61.0,30.09,NE,51,0.0,0.0,88,0.00,CLR,SKC,0.00,WeatherDisplay:10.37,2013-07-15 11:48:00,
2013-07-15 06:53:00,65.3,61.0,30.09,NE,51,0.0,0.0,86,0.01,RA,SKC,0.01,WeatherDisplay:10.37,2013-07-15 11:53:00,
2013-07-15 06:58:00,65.8,61.2,30.09,NE,51,0.0,0.0,85,0.01,RA,SKC,0.01,WeatherDisplay:10.37,2013-07-15 11:58:00,
2013-07-15 07:03:00,66.4,61.8,30.09,NE,51,0.0,0.0,85,0.01,,SKC,0.01,WeatherDisplay:10.37,2013-07-15 12:03:00,
2013-07-15 07:08:00,67.0,61.7,30.09,NE,51,0.0,0.0,83,0.01,CLR,SKC,0.01,WeatherDisplay:10.37,2013-07-15 12:08:00,
2013-07-15 07:13:00,67.8,62.1,30.09,NE,51,0.0,0.0,82,0.01,CLR,SKC,0.01,WeatherDisplay:10.37,2013-07-15 12:13:00,
2013-07-15 07:18:00,68.4,62.7,30.09,NE,51,0.0,0.0,82,0.01,CLR,SKC,0.01,WeatherDisplay:10.37,2013-07-15 12:18:00,
2013-07-15 07:23:00,69.1,63.0,30.09,NE,51,0.0,0.0,81,0.01,CLR,SKC,0.01,WeatherDisplay:10.37,2013-07-15 12:23:00,
2013-07-15 07:28:00,69.4,63.0,30.09,NE,51,0.0,0.0,80,0.01,CLR,SKC,0.01,WeatherDisplay:10.37,2013-07-15 12:28:00,
2013-07-15 07:33:00,69.4,62.6,30.09,NE,50,0.0,0.0,79,0.01,CLR,SKC,0.01,WeatherDisplay:10.37,2013-07-15 12:33:00,
2013-07-15 07:38:00,69.4,63.0,30.09,East,90,0.0,0.0,80,0.01,CLR,SKC,0.01,WeatherDisplay:10.37,2013-07-15 12:38:00,
2013-07-15 07:43:00,69.7,63.3,30.10,ENE,67,0.0,0.0,80,0.01,CLR,SKC,0.01,WeatherDisplay:10.37,2013-07-15 12:43:00,
2013-07-15 07:48:00,70.1,63.3,30.10,East,85,2.3,2.3,79,0.01,CLR,SKC,0.01,WeatherDisplay:10.37,2013-07-15 12:48:00,
2013-07-15 07:53:00,70.6,63.8,30.10,East,98,0.0,0.0,79,0.00,CLR,SKC,0.01,WeatherDisplay:10.37,2013-07-15 12:53:00,
2013-07-15 07:58:00,71.0,64.2,30.10,East,80,0.0,0.0,79,0.00,CLR,SKC,0.01,WeatherDisplay:10.37,2013-07-15 12:58:00,
2013-07-15 08:03:00,71.5,64.3,30.10,East,89,0.0,0.0,78,0.00,CLR,SKC,0.01,WeatherDisplay:10.37,2013-07-15 13:03:00,
2013-07-15 08:08:00,71.8,64.2,30.10,ENE,69,2.3,2.3,77,0.00,CLR,SKC,0.01,WeatherDisplay:10.37,2013-07-15 13:08:00,
2013-07-15 08:13:00,71.9,64.3,30.10,ESE,106,2.3,2.3,77,0.00,CLR,SKC,0.01,WeatherDisplay:10.37,2013-07-15 13:13:00,
2013-07-15 08:18:00,72.7,65.1,30.10,ESE,102,5.3,5.3,77,0.00,CLR,SKC,0.01,WeatherDisplay:10.37,2013-07-15 13:18:00,
2013-07-15 08:23:00,73.1,65.5,30.10,ESE,115,5.8,5.8,77,0.00,CLR,SKC,0.01,WeatherDisplay:10.37,2013-07-15 13:23:00,
2013-07-15 08:28:00,73.5,65.8,30.10,ESE,103,6.9,6.9,77,0.00,CLR,SKC,0.01,WeatherDisplay:10.37,2013-07-15 13:28:00,
2013-07-15 08:33:00,74.0,66.0,30.10,ESE,116,6.9,6.9,76,0.00,CLR,SKC,0.01,WeatherDisplay:10.37,2013-07-15 13:33:00,
2013-07-15 08:38:00,74.6,66.5,30.10,East,79,4.6,4.6,76,0.00,CLR,SKC,0.01,WeatherDisplay:10.37,2013-07-15 13:38:00,
2013-07-15 08:43:00,75.1,66.6,30.10,ESE,113,5.3,5.3,75,0.00,CLR,SKC,0.01,WeatherDisplay:10.37,2013-07-15 13:43:00,
2013-07-15 08:48:00,75.5,67.0,30.11,East,86,4.6,4.6,75,0.00,CLR,SKC,0.01,WeatherDisplay:10.37,2013-07-15 13:48:00,
2013-07-15 08:53:00,75.9,67.4,30.10,East,98,6.9,6.9,75,0.00,CLR,SKC,0.01,WeatherDisplay:10.37,2013-07-15 13:53:00,
2013-07-15 08:58:00,76.0,66.7,30.11,ENE,66,6.9,6.9,73,0.00,CLR,SKC,0.01,WeatherDisplay:10.37,2013-07-15 13:58:00,
2013-07-15 09:03:00,76.1,67.2,30.11,East,83,5.8,5.8,74,0.00,CLR,SKC,0.01,WeatherDisplay:10.37,2013-07-15 14:03:00,
2013-07-15 09:08:00,76.8,67.9,30.11,ESE,114,4.6,4.6,74,0.00,CLR,SKC,0.01,WeatherDisplay:10.37,2013-07-15 14:08:00,
2013-07-15 09:13:00,77.1,68.2,30.11,ESE,117,4.6,4.6,74,0.00,CLR,SKC,0.01,WeatherDisplay:10.37,2013-07-15 14:13:00,
2013-07-15 09:18:00,77.3,68.0,30.11,SE,141,5.8,5.8,73,0.01,RA,SKC,0.02,WeatherDisplay:10.37,2013-07-15 14:18:00,
2013-07-15 09:23:00,77.5,67.8,30.11,SSE,151,7.4,7.4,72,0.01,RA,SKC,0.02,WeatherDisplay:10.37,2013-07-15 14:23:00,
2013-07-15 09:28:00,77.8,68.4,30.11,SE,130,5.8,5.8,73,0.02,RA,SKC,0.03,WeatherDisplay:10.37,2013-07-15 14:28:00,
2013-07-15 09:33:00,78.1,68.7,30.10,ESE,108,6.9,6.9,73,0.02,RA,SKC,0.03,WeatherDisplay:10.37,2013-07-15 14:33:00,
2013-07-15 09:38:00,78.2,68.4,30.11,East,93,7.4,7.4,72,0.02,CLR,SKC,0.03,WeatherDisplay:10.37,2013-07-15 14:38:00,
2013-07-15 09:43:00,78.4,68.6,30.10,SE,143,8.1,8.1,72,0.02,CLR,SKC,0.03,WeatherDisplay:10.37,2013-07-15 14:43:00,
2013-07-15 09:48:00,78.6,69.2,30.10,SE,145,5.8,5.8,73,0.02,CLR,SKC,0.03,WeatherDisplay:10.37,2013-07-15 14:48:00,
2013-07-15 09:53:00,78.8,69.0,30.10,SSE,165,6.9,6.9,72,0.02,CLR,SKC,0.03,WeatherDisplay:10.37,2013-07-15 14:53:00,
2013-07-15 09:58:00,78.8,69.4,30.10,East,99,10.6,10.6,73,0.02,CLR,SKC,0.03,WeatherDisplay:10.37,2013-07-15 14:58:00,
2013-07-15 10:03:00,79.0,69.2,30.10,SSE,150,10.4,10.4,72,0.02,CLR,SKC,0.03,WeatherDisplay:10.37,2013-07-15 15:03:00,
2013-07-15 10:08:00,78.9,69.5,30.10,South,178,6.9,6.9,73,0.02,CLR,SKC,0.03,WeatherDisplay:10.37,2013-07-15 15:08:00,
2013-07-15 10:14:00,79.2,69.8,30.10,SE,124,7.4,7.4,73,0.02,CLR,SKC,0.03,WeatherDisplay:10.37,2013-07-15 15:14:00,
2013-07-15 10:19:00,79.6,70.2,30.10,ESE,107,7.4,7.4,73,0.01,CLR,SKC,0.03,WeatherDisplay:10.37,2013-07-15 15:19:00,
2013-07-15 10:25:00,79.9,70.1,30.11,East,98,9.5,9.5,72,0.01,CLR,SKC,0.03,WeatherDisplay:10.37,2013-07-15 15:25:00,
2013-07-15 10:30:00,80.0,69.7,30.11,ESE,121,8.5,8.5,71,0.00,CLR,SKC,0.03,WeatherDisplay:10.37,2013-07-15 15:30:00,
2013-07-15 10:37:00,80.2,69.5,30.11,SSE,150,8.5,8.5,70,0.00,CLR,SKC,0.03,WeatherDisplay:10.37,2013-07-15 15:37:00,
2013-07-15 10:42:00,80.3,70.0,30.11,SSE,147,10.6,10.6,71,0.00,CLR,SKC,0.03,WeatherDisplay:10.37,2013-07-15 15:42:00,
2013-07-15 10:47:00,80.3,69.6,30.11,ESE,103,9.5,9.5,70,0.00,CLR,SKC,0.03,WeatherDisplay:10.37,2013-07-15 15:47:00,
2013-07-15 10:52:00,80.6,71.1,30.11,South,174,8.1,8.1,73,0.00,CLR,SKC,0.03,WeatherDisplay:10.37,2013-07-15 15:52:00,
2013-07-15 10:58:00,81.0,70.7,30.11,SE,139,9.5,9.5,71,0.00,CLR,SKC,0.03,WeatherDisplay:10.37,2013-07-15 15:58:00,
2013-07-15 11:04:00,81.3,70.2,30.11,SSE,168,5.8,5.8,69,0.00,CLR,SKC,0.03,WeatherDisplay:10.37,2013-07-15 16:04:00,
2013-07-15 11:09:00,81.5,70.3,30.10,ESE,102,9.5,9.5,69,0.00,CLR,SKC,0.03,WeatherDisplay:10.37,2013-07-15 16:09:00,
2013-07-15 11:14:00,81.2,70.9,30.10,SSE,148,6.4,6.4,71,0.00,CLR,SKC,0.03,WeatherDisplay:10.37,2013-07-15 16:14:00,
2013-07-15 11:19:00,81.3,70.6,30.10,ESE,122,6.4,6.4,70,0.00,CLR,SKC,0.03,WeatherDisplay:10.37,2013-07-15 16:19:00,
2013-07-15 11:24:00,81.7,70.5,30.10,SE,124,8.5,8.5,69,0.00,CLR,SKC,0.03,WeatherDisplay:10.37,2013-07-15 16:24:00,
2013-07-15 11:29:00,81.9,71.2,30.10,East,89,8.5,8.5,70,0.00,CLR,SKC,0.03,WeatherDisplay:10.37,2013-07-15 16:29:00,
2013-07-15 11:34:00,82.3,70.2,30.10,SE,130,8.5,8.5,67,0.00,CLR,SKC,0.03,WeatherDisplay:10.37,2013-07-15 16:34:00,
2013-07-15 11:39:00,82.5,70.4,30.10,ESE,108,9.5,9.5,67,0.00,CLR,SKC,0.03,WeatherDisplay:10.37,2013-07-15 16:39:00,
2013-07-15 11:44:00,82.5,71.3,30.10,East,84,6.9,6.9,69,0.00,CLR,SKC,0.03,WeatherDisplay:10.37,2013-07-15 16:44:00,
2013-07-15 11:50:00,83.0,70.5,30.10,ESE,111,7.0,12.0,66,0.00,CLR,SKC,0.03,WeatherDisplay:10.37,2013-07-15 16:50:00,
2013-07-15 11:54:00,83.0,70.0,30.10,ESE,120,8.5,8.5,65,0.00,CLR,SKC,0.03,WeatherDisplay:10.37,2013-07-15 16:54:00,
2013-07-15 12:00:00,83.0,69.6,30.09,SSE,153,9.2,9.2,64,0.00,CLR,SKC,0.03,WeatherDisplay:10.37,2013-07-15 17:00:00,
2013-07-15 12:05:00,83.2,69.8,30.09,East,86,8.5,8.5,64,0.00,CLR,SKC,0.03,WeatherDisplay:10.37,2013-07-15 17:05:00,
2013-07-15 12:11:00,83.6,69.7,30.09,ESE,121,10.6,10.6,63,0.00,CLR,SKC,0.03,WeatherDisplay:10.37,2013-07-15 17:11:00,
2013-07-15 12:16:00,83.7,69.3,30.09,SE,134,10.6,10.6,62,0.00,CLR,SKC,0.03,WeatherDisplay:10.37,2013-07-15 17:16:00,
2013-07-15 12:21:00,84.0,69.1,30.09,ENE,77,10.6,10.6,61,0.00,CLR,SKC,0.03,WeatherDisplay:10.37,2013-07-15 17:21:00,
2013-07-15 12:26:00,84.0,69.6,30.09,East,82,6.9,6.9,62,0.00,CLR,SKC,0.03,WeatherDisplay:10.37,2013-07-15 17:26:00,
2013-07-15 12:31:00,83.9,68.5,30.09,East,98,12.7,12.7,60,0.00,CLR,SKC,0.03,WeatherDisplay:10.37,2013-07-15 17:31:00,
2013-07-15 12:36:00,84.3,68.9,30.09,East,93,12.7,12.7,60,0.00,CLR,SKC,0.03,WeatherDisplay:10.37,2013-07-15 17:36:00,
2013-07-15 12:41:00,84.7,70.2,30.09,SE,142,8.1,8.1,62,0.00,CLR,SKC,0.03,WeatherDisplay:10.37,2013-07-15 17:41:00,
2013-07-15 12:47:00,84.8,69.4,30.09,East,92,10.4,10.4,60,0.00,CLR,SKC,0.03,WeatherDisplay:10.37,2013-07-15 17:47:00,
2013-07-15 12:52:00,84.9,69.0,30.09,East,93,10.4,10.4,59,0.00,CLR,SKC,0.03,WeatherDisplay:10.37,2013-07-15 17:52:00,
2013-07-15 12:57:00,85.3,68.8,30.09,ESE,113,8.1,8.1,58,0.00,CLR,SKC,0.03,WeatherDisplay:10.37,2013-07-15 17:57:00,
2013-07-15 13:02:00,85.5,70.0,30.09,ESE,122,9.5,9.5,60,0.00,CLR,SKC,0.03,WeatherDisplay:10.37,2013-07-15 18:02:00,
2013-07-15 13:07:00,85.0,69.1,30.08,East,98,10.6,10.6,59,0.00,CLR,SKC,0.03,WeatherDisplay:10.37,2013-07-15 18:07:00,
2013-07-15 13:12:00,84.7,68.8,30.08,East,99,9.5,9.5,59,0.00,CLR,SKC,0.03,WeatherDisplay:10.37,2013-07-15 18:12:00,
2013-07-15 13:18:00,85.0,69.6,30.08,SE,145,9.5,9.5,60,0.00,CLR,SKC,0.03,WeatherDisplay:10.37,2013-07-15 18:18:00,
2013-07-15 13:23:00,85.3,69.3,30.08,SE,129,9.5,9.5,59,0.00,CLR,SKC,0.03,WeatherDisplay:10.37,2013-07-15 18:23:00,
2013-07-15 13:28:00,85.4,68.9,30.08,SSE,153,11.5,11.5,58,0.00,CLR,SKC,0.03,WeatherDisplay:10.37,2013-07-15 18:28:00,
2013-07-15 13:34:00,86.0,70.0,30.08,South,184,8.5,8.5,59,0.00,CLR,SKC,0.03,WeatherDisplay:10.37,2013-07-15 18:34:00,
2013-07-15 13:39:00,85.7,69.2,30.08,SE,131,13.8,13.8,58,0.00,CLR,SKC,0.03,WeatherDisplay:10.37,2013-07-15 18:39:00,
2013-07-15 13:45:00,85.5,70.0,30.08,ESE,122,12.7,12.7,60,0.00,CLR,SKC,0.03,WeatherDisplay:10.37,2013-07-15 18:45:00,
2013-07-15 13:51:00,85.1,69.7,30.08,SE,137,10.6,10.6,60,0.00,CLR,SKC,0.03,WeatherDisplay:10.37,2013-07-15 18:51:00,
2013-07-15 13:56:00,84.9,69.5,30.08,SE,124,11.5,11.5,60,0.00,CLR,SKC,0.03,WeatherDisplay:10.37,2013-07-15 18:56:00,
2013-07-15 14:01:00,84.3,68.9,30.07,SSE,148,6.9,6.9,60,0.00,CLR,SKC,0.03,WeatherDisplay:10.37,2013-07-15 19:01:00,
2013-07-15 14:06:00,84.9,69.0,30.07,SE,135,9.2,9.2,59,0.00,CLR,SKC,0.03,WeatherDisplay:10.37,2013-07-15 19:06:00,
2013-07-15 14:11:00,84.7,69.8,30.07,SE,131,10.6,10.6,61,0.00,CLR,SKC,0.03,WeatherDisplay:10.37,2013-07-15 19:11:00,
2013-07-15 14:16:00,85.2,69.3,30.07,ESE,110,12.7,12.7,59,0.00,CLR,SKC,0.03,WeatherDisplay:10.37,2013-07-15 19:16:00,
2013-07-15 14:22:00,85.6,69.1,30.07,East,98,11.5,11.5,58,0.00,CLR,SKC,0.03,WeatherDisplay:10.37,2013-07-15 19:22:00,
2013-07-15 14:27:00,86.2,70.2,30.06,SE,127,10.6,10.6,59,0.00,CLR,SKC,0.03,WeatherDisplay:10.37,2013-07-15 19:27:00,
2013-07-15 14:32:00,86.2,68.1,30.06,SE,127,11.7,11.7,55,0.00,CLR,SKC,0.03,WeatherDisplay:10.37,2013-07-15 19:32:00,
2013-07-15 14:37:00,85.2,68.2,30.06,East,100,8.5,8.5,57,0.00,CLR,SKC,0.03,WeatherDisplay:10.37,2013-07-15 19:37:00,
2013-07-15 14:42:00,85.2,68.8,30.06,SE,129,11.5,11.5,58,0.00,CLR,SKC,0.03,WeatherDisplay:10.37,2013-07-15 19:42:00,
2013-07-15 14:47:00,85.5,68.5,30.06,ESE,107,10.6,10.6,57,0.00,CLR,SKC,0.03,WeatherDisplay:10.37,2013-07-15 19:47:00,
2013-07-15 14:53:00,86.1,70.1,30.06,East,99,9.5,9.5,59,0.00,CLR,SKC,0.03,WeatherDisplay:10.37,2013-07-15 19:53:00,
2013-07-15 14:58:00,86.5,68.9,30.05,ESE,115,12.7,12.7,56,0.00,CLR,SKC,0.03,WeatherDisplay:10.37,2013-07-15 19:58:00,
2013-07-15 15:04:00,85.8,68.8,30.05,SE,136,11.7,11.7,57,0.00,CLR,SKC,0.03,WeatherDisplay:10.37,2013-07-15 20:04:00,
2013-07-15 15:09:00,86.2,69.7,30.05,East,98,11.7,11.7,58,0.00,CLR,SKC,0.03,WeatherDisplay:10.37,2013-07-15 20:09:00,
2013-07-15 15:14:00,85.6,68.6,30.05,ENE,77,11.7,11.7,57,0.00,CLR,SKC,0.03,WeatherDisplay:10.37,2013-07-15 20:14:00,
2013-07-15 15:19:00,86.3,69.3,30.05,ESE,118,13.8,13.8,57,0.00,CLR,SKC,0.03,WeatherDisplay:10.37,2013-07-15 20:19:00,
2013-07-15 15:25:00,85.7,68.2,30.05,SE,141,8.5,8.5,56,0.00,CLR,SKC,0.03,WeatherDisplay:10.37,2013-07-15 20:25:00,
2013-07-15 15:30:00,86.1,67.5,30.05,SE,131,11.5,11.5,54,0.00,CLR,SKC,0.03,WeatherDisplay:10.37,2013-07-15 20:30:00,
2013-07-15 15:35:00,86.2,68.1,30.05,ESE,123,12.7,12.7,55,0.00,CLR,SKC,0.03,WeatherDisplay:10.37,2013-07-15 20:35:00,
2013-07-15 15:40:00,85.5,67.0,30.05,SE,135,12.7,12.7,54,0.00,CLR,SKC,0.03,WeatherDisplay:10.37,2013-07-15 20:40:00,
2013-07-15 15:46:00,86.1,68.6,30.05,ESE,112,9.5,9.5,56,0.00,CLR,SKC,0.03,WeatherDisplay:10.37,2013-07-15 20:46:00,
2013-07-15 15:51:00,86.6,68.5,30.05,SE,128,10.6,10.6,55,0.00,CLR,SKC,0.03,WeatherDisplay:10.37,2013-07-15 20:51:00,
2013-07-15 15:57:00,86.8,66.5,30.05,SE,127,13.8,13.8,51,0.00,CLR,SKC,0.03,WeatherDisplay:10.37,2013-07-15 20:57:00,
2013-07-15 16:02:00,86.8,68.2,30.04,SE,133,12.7,12.7,54,0.00,CLR,SKC,0.03,WeatherDisplay:10.37,2013-07-15 21:02:00,
2013-07-15 16:07:00,87.1,69.0,30.04,SE,136,7.4,7.4,55,0.00,CLR,SKC,0.03,WeatherDisplay:10.37,2013-07-15 21:07:00,
2013-07-15 16:13:00,87.5,68.3,30.04,SSE,152,10.6,10.6,53,0.00,CLR,SKC,0.03,WeatherDisplay:10.37,2013-07-15 21:13:00,
2013-07-15 16:18:00,87.2,69.1,30.04,ESE,122,11.7,11.7,55,0.00,CLR,SKC,0.03,WeatherDisplay:10.37,2013-07-15 21:18:00,
2013-07-15 16:23:00,87.0,67.8,30.04,SSE,162,8.5,8.5,53,0.00,CLR,SKC,0.03,WeatherDisplay:10.37,2013-07-15 21:23:00,
2013-07-15 16:29:00,87.3,67.0,30.04,SE,130,16.1,16.1,51,0.00,CLR,SKC,0.03,WeatherDisplay:10.37,2013-07-15 21:29:00,
2013-07-15 16:34:00,87.3,64.6,30.04,SE,134,13.8,13.8,47,0.00,CLR,SKC,0.03,WeatherDisplay:10.37,2013-07-15 21:34:00,
2013-07-15 16:39:00,87.5,64.8,30.04,ESE,108,11.7,11.7,47,0.00,CLR,SKC,0.03,WeatherDisplay:10.37,2013-07-15 21:39:00,
2013-07-15 16:46:00,87.5,66.6,30.04,SE,141,9.5,9.5,50,0.00,CLR,SKC,0.03,WeatherDisplay:10.37,2013-07-15 21:46:00,
2013-07-15 16:51:00,87.5,66.0,30.04,ESE,110,13.8,13.8,49,0.00,CLR,SKC,0.03,WeatherDisplay:10.37,2013-07-15 21:51:00,
2013-07-15 16:56:00,87.6,64.9,30.04,ESE,117,13.8,13.8,47,0.00,CLR,SKC,0.03,WeatherDisplay:10.37,2013-07-15 21:56:00,
2013-07-15 17:01:00,87.5,64.2,30.04,SE,126,12.7,12.7,46,0.00,CLR,SKC,0.03,WeatherDisplay:10.37,2013-07-15 22:01:00,
2013-07-15 17:06:00,87.4,65.9,30.04,ESE,113,9.5,9.5,49,0.00,CLR,SKC,0.03,WeatherDisplay:10.37,2013-07-15 22:06:00,
2013-07-15 17:12:00,87.3,67.0,30.03,SE,143,10.6,10.6,51,0.00,CLR,SKC,0.03,WeatherDisplay:10.37,2013-07-15 22:12:00,
2013-07-15 17:17:00,87.3,66.4,30.03,SE,136,13.8,13.8,50,0.00,CLR,SKC,0.03,WeatherDisplay:10.37,2013-07-15 22:17:00,
2013-07-15 17:22:00,87.4,67.6,30.03,ESE,115,11.7,11.7,52,0.00,CLR,SKC,0.03,WeatherDisplay:10.37,2013-07-15 22:22:00,
2013-07-15 17:27:00,87.5,66.6,30.03,SE,137,11.7,11.7,50,0.00,CLR,SKC,0.03,WeatherDisplay:10.37,2013-07-15 22:27:00,
2013-07-15 17:33:00,87.4,67.6,30.03,ESE,122,11.7,11.7,52,0.00,CLR,SKC,0.03,WeatherDisplay:10.37,2013-07-15 22:33:00,
2013-07-15 17:38:00,87.4,67.6,30.02,SE,131,10.4,10.4,52,0.00,CLR,SKC,0.03,WeatherDisplay:10.37,2013-07-15 22:38:00,
2013-07-15 17:43:00,87.1,67.9,30.02,SE,146,12.7,12.7,53,0.00,CLR,SKC,0.03,WeatherDisplay:10.37,2013-07-15 22:43:00,
2013-07-15 17:48:00,87.2,67.4,30.02,SE,134,10.4,10.4,52,0.00,CLR,SKC,0.03,WeatherDisplay:10.37,2013-07-15 22:48:00,
2013-07-15 17:54:00,87.2,67.4,30.02,SE,137,11.7,11.7,52,0.00,CLR,SKC,0.03,WeatherDisplay:10.37,2013-07-15 22:54:00,
2013-07-15 17:59:00,87.1,66.8,30.02,SSE,147,11.7,11.7,51,0.00,CLR,SKC,0.03,WeatherDisplay:10.37,2013-07-15 22:59:00,
2013-07-15 18:04:00,87.0,67.8,30.02,SE,124,8.5,8.5,53,0.00,CLR,SKC,0.03,WeatherDisplay:10.37,2013-07-15 23:04:00,
2013-07-15 18:09:00,86.9,67.2,30.02,SSE,161,10.6,10.6,52,0.00,CLR,SKC,0.03,WeatherDisplay:10.37,2013-07-15 23:09:00,
2013-07-15 18:14:00,86.9,66.6,30.02,South,176,8.5,8.5,51,0.00,CLR,SKC,0.03,WeatherDisplay:10.37,2013-07-15 23:14:00,
2013-07-15 18:19:00,86.8,67.6,30.02,SE,137,7.0,13.0,53,0.00,CLR,SKC,0.03,WeatherDisplay:10.37,2013-07-15 23:19:00,
2013-07-15 18:25:00,86.8,67.6,30.02,ESE,121,10.6,10.6,53,0.00,CLR,SKC,0.03,WeatherDisplay:10.37,2013-07-15 23:25:00,
2013-07-15 18:30:00,86.5,66.8,30.02,ESE,118,10.6,10.6,52,0.00,CLR,SKC,0.03,WeatherDisplay:10.37,2013-07-15 23:30:00,
2013-07-15 18:36:00,86.6,66.9,30.02,South,172,12.7,12.7,52,0.00,CLR,SKC,0.03,WeatherDisplay:10.37,2013-07-15 23:36:00,
2013-07-15 18:41:00,86.5,66.8,30.02,SSE,153,11.7,11.7,52,0.00,CLR,SKC,0.03,WeatherDisplay:10.37,2013-07-15 23:41:00,
2013-07-15 18:46:00,86.3,67.7,30.02,SE,134,8.5,8.5,54,0.00,CLR,SKC,0.03,WeatherDisplay:10.37,2013-07-15 23:46:00,
2013-07-15 18:52:00,86.2,67.6,30.02,ESE,106,10.6,10.6,54,0.00,CLR,SKC,0.03,WeatherDisplay:10.37,2013-07-15 23:52:00,
2013-07-15 18:57:00,86.2,67.6,30.02,SE,127,9.5,9.5,54,0.00,CLR,SKC,0.03,WeatherDisplay:10.37,2013-07-15 23:57:00,
2013-07-15 19:03:00,85.9,67.9,30.03,ESE,115,9.2,9.2,55,0.00,CLR,SKC,0.03,WeatherDisplay:10.37,2013-07-16 00:03:00,
2013-07-15 19:08:00,85.8,68.3,30.02,SE,134,7.4,7.4,56,0.00,CLR,SKC,0.03,WeatherDisplay:10.37,2013-07-16 00:08:00,
2013-07-15 19:13:00,85.7,68.2,30.02,SE,129,9.5,9.5,56,0.00,CLR,SKC,0.03,WeatherDisplay:10.37,2013-07-16 00:13:00,
2013-07-15 19:19:00,85.6,68.1,30.02,SE,134,9.5,9.5,56,0.00,CLR,SKC,0.03,WeatherDisplay:10.37,2013-07-16 00:19:00,
2013-07-15 19:24:00,85.4,67.9,30.02,ESE,109,7.4,7.4,56,0.00,CLR,SKC,0.03,WeatherDisplay:10.37,2013-07-16 00:24:00,
2013-07-15 19:29:00,85.3,68.3,30.03,ESE,111,6.9,6.9,57,0.00,CLR,SKC,0.03,WeatherDisplay:10.37,2013-07-16 00:29:00,
2013-07-15 19:34:00,85.2,68.2,30.03,SE,131,10.6,10.6,57,0.00,CLR,SKC,0.03,WeatherDisplay:10.37,2013-07-16 00:34:00,
2013-07-15 19:39:00,85.0,68.1,30.03,SE,129,5.8,5.8,57,0.00,CLR,SKC,0.03,WeatherDisplay:10.37,2013-07-16 00:39:00,
2013-07-15 19:44:00,84.9,69.0,30.03,SE,124,5.8,5.8,59,0.00,CLR,SKC,0.03,WeatherDisplay:10.37,2013-07-16 00:44:00,
2013-07-15 19:49:00,84.7,68.3,30.03,SE,134,8.1,8.1,58,0.00,CLR,SKC,0.03,WeatherDisplay:10.37,2013-07-16 00:49:00,
2013-07-15 19:55:00,84.6,68.2,30.03,SE,135,5.8,5.8,58,0.00,CLR,SKC,0.03,WeatherDisplay:10.37,2013-07-16 00:55:00,
2013-07-15 20:00:00,84.3,68.4,30.03,SE,124,8.5,8.5,59,0.00,CLR,SKC,0.03,WeatherDisplay:10.37,2013-07-16 01:00:00,
2013-07-15 20:05:00,84.1,68.7,30.03,SE,126,4.2,4.2,60,0.00,CLR,SKC,0.03,WeatherDisplay:10.37,2013-07-16 01:05:00,
2013-07-15 20:10:00,83.7,68.8,30.03,ESE,114,3.5,3.5,61,0.00,CLR,SKC,0.03,WeatherDisplay:10.37,2013-07-16 01:10:00,
2013-07-15 20:15:00,83.4,68.5,30.03,SE,127,4.6,4.6,61,0.00,CLR,SKC,0.03,WeatherDisplay:10.37,2013-07-16 01:15:00,
2013-07-15 20:20:00,83.1,68.7,30.03,SE,133,3.5,3.5,62,0.00,CLR,SKC,0.03,WeatherDisplay:10.37,2013-07-16 01:20:00,
2013-07-15 20:26:00,82.7,68.4,30.03,ESE,108,5.3,5.3,62,0.00,CLR,SKC,0.03,WeatherDisplay:10.37,2013-07-16 01:26:00,
2013-07-15 20:31:00,82.4,68.5,30.03,East,101,4.6,4.6,63,0.00,CLR,SKC,0.03,WeatherDisplay:10.37,2013-07-16 01:31:00,
2013-07-15 20:36:00,81.9,68.1,30.03,ESE,120,2.3,2.3,63,0.00,CLR,SKC,0.03,WeatherDisplay:10.37,2013-07-16 01:36:00,
2013-07-15 20:41:00,81.5,68.1,30.03,ESE,121,0.0,0.0,64,0.00,RA,SKC,0.00,WeatherDisplay:10.37,2013-07-16 01:41:00,
2013-07-15 20:47:00,81.0,68.1,30.03,ESE,110,0.0,0.0,65,0.00,RA,SKC,0.00,WeatherDisplay:10.37,2013-07-16 01:47:00,
2013-07-15 20:53:00,80.4,68.4,30.03,ENE,68,0.0,0.0,67,0.00,CLR,SKC,0.00,WeatherDisplay:10.37,2013-07-16 01:53:00,
2013-07-15 20:59:00,79.6,68.1,30.04,ENE,69,0.0,0.0,68,0.00,CLR,SKC,0.00,WeatherDisplay:10.37,2013-07-16 01:59:00,
2013-07-15 21:04:00,79.0,68.4,30.04,ENE,69,0.0,0.0,70,0.00,CLR,SKC,0.00,WeatherDisplay:10.37,2013-07-16 02:04:00,
2013-07-15 21:09:00,79.0,68.4,30.04,ENE,68,0.0,0.0,70,0.00,CLR,SKC,0.00,WeatherDisplay:10.37,2013-07-16 02:09:00,
2013-07-15 21:14:00,78.8,68.2,30.04,ENE,69,0.0,0.0,70,0.00,CLR,SKC,0.00,WeatherDisplay:10.37,2013-07-16 02:14:00,
2013-07-15 21:19:00,78.6,68.4,30.04,East,80,0.0,0.0,71,0.00,CLR,SKC,0.00,WeatherDisplay:10.37,2013-07-16 02:19:00,
2013-07-15 21:25:00,78.3,68.5,30.04,East,83,0.0,0.0,72,0.00,CLR,SKC,0.00,WeatherDisplay:10.37,2013-07-16 02:25:00,
2013-07-15 21:30:00,78.1,68.3,30.05,East,82,0.0,0.0,72,0.00,CLR,SKC,0.00,WeatherDisplay:10.37,2013-07-16 02:30:00,
2013-07-15 21:35:00,77.7,68.4,30.05,East,82,0.0,0.0,73,0.00,CLR,SKC,0.00,WeatherDisplay:10.37,2013-07-16 02:35:00,
2013-07-15 21:40:00,77.2,68.3,30.05,East,91,0.0,0.0,74,0.00,CLR,SKC,0.00,WeatherDisplay:10.37,2013-07-16 02:40:00,
2013-07-15 21:47:00,77.9,68.5,30.05,East,90,3.5,3.5,73,0.00,CLR,SKC,0.00,WeatherDisplay:10.37,2013-07-16 02:47:00,
2013-07-15 21:52:00,77.9,68.5,30.06,East,89,2.3,2.3,73,0.00,CLR,SKC,0.00,WeatherDisplay:10.37,2013-07-16 02:52:00,
2013-07-15 21:57:00,77.6,68.3,30.06,East,99,2.3,2.3,73,0.00,CLR,SKC,0.00,WeatherDisplay:10.37,2013-07-16 02:57:00,
2013-07-15 22:02:00,77.2,68.3,30.06,East,86,0.0,0.0,74,0.00,CLR,SKC,0.00,WeatherDisplay:10.37,2013-07-16 03:02:00,
2013-07-15 22:07:00,76.9,68.4,30.06,East,80,0.0,0.0,75,0.00,CLR,SKC,0.00,WeatherDisplay:10.37,2013-07-16 03:07:00,
2013-07-15 22:12:00,76.6,68.1,30.06,East,81,0.0,0.0,75,0.00,CLR,SKC,0.00,WeatherDisplay:10.37,2013-07-16 03:12:00,
2013-07-15 22:17:00,76.1,68.4,30.06,East,85,0.0,0.0,77,0.00,CLR,SKC,0.00,WeatherDisplay:10.37,2013-07-16 03:17:00,
2013-07-15 22:22:00,75.9,68.2,30.06,East,93,0.0,0.0,77,0.00,CLR,SKC,0.00,WeatherDisplay:10.37,2013-07-16 03:22:00,
2013-07-15 22:28:00,76.1,68.4,30.06,East,93,0.0,0.0,77,0.00,CLR,SKC,0.00,WeatherDisplay:10.37,2013-07-16 03:28:00,
2013-07-15 22:33:00,76.0,68.3,30.07,East,94,0.0,0.0,77,0.00,CLR,SKC,0.00,WeatherDisplay:10.37,2013-07-16 03:33:00,
2013-07-15 22:39:00,75.7,68.0,30.07,East,94,0.0,0.0,77,0.00,CLR,SKC,0.00,WeatherDisplay:10.37,2013-07-16 03:39:00,
2013-07-15 22:45:00,75.2,68.2,30.07,East,94,0.0,0.0,79,0.00,CLR,SKC,0.00,WeatherDisplay:10.37,2013-07-16 03:45:00,
2013-07-15 22:50:00,75.0,68.0,30.07,East,94,0.0,0.0,79,0.00,CLR,SKC,0.00,WeatherDisplay:10.37,2013-07-16 03:50:00,
2013-07-15 22:55:00,74.9,67.9,30.07,East,93,0.0,0.0,79,0.00,CLR,SKC,0.00,WeatherDisplay:10.37,2013-07-16 03:55:00,
2013-07-15 23:01:00,74.9,68.3,30.07,East,86,0.0,0.0,80,0.00,CLR,SKC,0.00,WeatherDisplay:10.37,2013-07-16 04:01:00,
2013-07-15 23:02:00,74.9,68.3,30.08,East,86,0.0,0.0,80,0.00,CLR,SKC,0.00,WeatherDisplay:10.37,2013-07-16 04:02:00,
2013-07-15 23:07:00,74.6,68.0,30.08,East,86,0.0,0.0,80,0.00,CLR,SKC,0.00,WeatherDisplay:10.37,2013-07-16 04:07:00,
2013-07-15 23:12:00,74.3,67.7,30.08,East,86,0.0,0.0,80,0.00,CLR,SKC,0.00,WeatherDisplay:10.37,2013-07-16 04:12:00,
2013-07-15 23:17:00,74.3,68.1,30.08,ESE,109,0.0,0.0,81,0.00,CLR,SKC,0.00,WeatherDisplay:10.37,2013-07-16 04:17:00,
2013-07-15 23:22:00,74.4,68.2,30.08,ESE,110,0.0,0.0,81,0.00,CLR,SKC,0.00,WeatherDisplay:10.37,2013-07-16 04:22:00,
2013-07-15 23:27:00,74.5,68.3,30.08,ESE,122,0.0,0.0,81,0.00,CLR,SKC,0.00,WeatherDisplay:10.37,2013-07-16 04:27:00,
2013-07-15 23:32:00,74.6,68.4,30.08,SE,129,0.0,0.0,81,0.00,CLR,SKC,0.00,WeatherDisplay:10.37,2013-07-16 04:32:00,
2013-07-15 23:37:00,74.6,68.0,30.08,SE,127,0.0,0.0,80,0.00,CLR,SKC,0.00,WeatherDisplay:10.37,2013-07-16 04:37:00,
2013-07-15 23:42:00,74.4,68.2,30.08,SE,146,0.0,0.0,81,0.00,CLR,SKC,0.00,WeatherDisplay:10.37,2013-07-16 04:42:00,
2013-07-15 23:47:00,74.2,68.0,30.08,SE,146,0.0,0.0,81,0.00,CLR,SKC,0.00,WeatherDisplay:10.37,2013-07-16 04:47:00,
2013-07-15 23:52:00,74.1,68.3,30.09,ESE,117,0.0,0.0,82,0.00,CLR,SKC,0.00,WeatherDisplay:10.37,2013-07-16 04:52:00,
2013-07-15 23:57:00,74.2,68.3,30.09,ESE,118,3.2,3.2,82,0.00,CLR,SKC,0.00,WeatherDisplay:10.37,2013-07-16 04:57:00,